TimeCDT,TemperatureF,Dew PointF,Humidity,Sea Level PressureIn,VisibilityMPH,Wind Direction,Wind SpeedMPH,Gust SpeedMPH,PrecipitationIn,Events,Conditions,WindDirDegrees,DateUTC
12:15 AM,31.8,29.1,90,30.08,1.8,SE,9.2,20.7,N/A,Snow,Light Snow,130,2014-04-17 05:15:00
12:35 AM,31.8,29.1,90,30.08,1.0,SE,11.5,18.4,0.01,Snow,Snow,130,2014-04-17 05:35:00
12:55 AM,31.8,29.1,90,30.07,1.0,SE,11.5,-,0.01,Snow,Snow,130,2014-04-17 05:55:00
1:15 AM,31.8,29.3,90,30.06,0.8,ESE,12.7,19.6,0.01,Snow,Snow,120,2014-04-17 06:15:00
1:35 AM,31.8,29.3,90,30.06,1.0,SE,10.4,18.4,0.01,Snow,Snow,130,2014-04-17 06:35:00
1:55 AM,31.8,29.3,90,30.06,0.8,ESE,12.7,18.4,0.02,Snow,Snow,120,2014-04-17 06:55:00
2:15 AM,31.8,29.3,90,30.05,0.8,ESE,11.5,17.3,0.01,Snow,Snow,120,2014-04-17 07:15:00
2:35 AM,31.8,29.5,91,30.04,0.5,ESE,13.8,17.3,0.02,Snow,Heavy Snow,120,2014-04-17 07:35:00
2:55 AM,31.8,29.7,92,30.03,0.8,ESE,12.7,-,0.03,Snow,Snow,120,2014-04-17 07:55:00
3:15 AM,31.8,29.7,92,30.03,0.8,ESE,10.4,21.9,0.01,Snow,Snow,120,2014-04-17 08:15:00
3:35 AM,31.8,29.7,92,30.03,0.8,SE,13.8,19.6,0.01,Snow,Snow,130,2014-04-17 08:35:00
3:55 AM,31.8,29.7,92,30.03,0.8,SE,12.7,-,0.02,Snow,Snow,130,2014-04-17 08:55:00
4:15 AM,31.8,29.7,92,30.02,0.5,ESE,12.7,18.4,0.01,Snow,Heavy Snow,120,2014-04-17 09:15:00
4:35 AM,31.8,29.7,92,30.02,0.5,SE,10.4,-,0.03,Snow,Heavy Snow,130,2014-04-17 09:35:00
4:55 AM,31.8,29.7,92,30.02,0.5,SE,12.7,18.4,0.04,Snow,Heavy Snow,130,2014-04-17 09:55:00
5:15 AM,31.8,29.7,92,30.02,-9999.0,SE,12.7,-,N/A,Snow,Heavy Snow,130,2014-04-17 10:15:00
5:35 AM,31.8,29.7,92,30.02,0.8,SE,10.4,-,N/A,Snow,Snow,130,2014-04-17 10:35:00
5:55 AM,32.0,29.8,92,30.02,-9999.0,SE,9.2,-,N/A,,Unknown,130,2014-04-17 10:55:00
6:15 AM,32.0,30.2,93,30.02,0.8,SE,9.2,-,0.03,Snow,Light Snow,130,2014-04-17 11:15:00
6:35 AM,32.4,30.7,94,30.02,1.2,SE,6.9,-,0.05,Snow,Light Snow,130,2014-04-17 11:35:00
6:55 AM,32.9,31.1,93,30.03,0.8,SE,6.9,-,0.05,Snow,Light Snow,130,2014-04-17 11:55:00
7:15 AM,32.9,31.1,93,30.03,0.5,ESE,4.6,-,0.01,Snow,Snow,120,2014-04-17 12:15:00
7:35 AM,32.9,31.1,93,30.04,0.8,ESE,4.6,-,0.02,Snow,Light Snow,120,2014-04-17 12:35:00
7:55 AM,32.9,31.1,93,30.05,0.8,ESE,5.8,-,0.03,Snow,Light Snow,120,2014-04-17 12:55:00
8:15 AM,34.0,32.0,92,30.05,1.2,ESE,5.8,-,N/A,Snow,Light Snow,120,2014-04-17 13:15:00
8:35 AM,34.0,32.0,92,30.06,-9999.0,SSE,4.6,-,N/A,,Unknown,150,2014-04-17 13:35:00
8:55 AM,34.0,32.0,92,30.06,2.0,SSE,3.5,-,N/A,Snow,Light Snow,160,2014-04-17 13:55:00
9:15 AM,36.5,34.3,92,30.06,5.0,SE,3.5,-,N/A,Snow,Light Snow,130,2014-04-17 14:15:00
9:35 AM,36.5,34.3,92,30.06,10.0,SE,3.5,-,N/A,,Overcast,140,2014-04-17 14:35:00
9:55 AM,36.5,34.3,92,30.07,10.0,SSE,3.5,-,N/A,,Overcast,160,2014-04-17 14:55:00
10:15 AM,36.5,34.2,91,30.08,10.0,SSE,4.6,-,N/A,,Overcast,160,2014-04-17 15:15:00
10:35 AM,36.5,34.0,91,30.08,10.0,Calm,Calm,-,N/A,,Overcast,0,2014-04-17 15:35:00
10:55 AM,36.5,33.8,90,30.09,10.0,SSE,4.6,-,N/A,,Overcast,150,2014-04-17 15:55:00
11:15 AM,36.5,32.9,87,30.10,10.0,South,3.5,-,N/A,,Overcast,190,2014-04-17 16:15:00
11:35 AM,36.5,32.2,84,30.10,10.0,SW,4.6,-,N/A,,Overcast,220,2014-04-17 16:35:00
12:15 PM,37.0,33.3,86,30.12,4.0,WSW,6.9,-,N/A,,Overcast,250,2014-04-17 17:15:00
12:35 PM,37.0,33.6,87,30.12,1.8,West,3.5,-,N/A,,Overcast,260,2014-04-17 17:35:00
12:55 PM,39.2,35.8,88,30.12,1.5,West,4.6,-,N/A,,Overcast,270,2014-04-17 17:55:00
1:15 PM,39.2,35.6,87,30.12,3.0,West,4.6,-,N/A,,Overcast,270,2014-04-17 18:15:00
1:35 PM,39.2,35.4,86,30.13,10.0,WNW,4.6,-,N/A,,Overcast,300,2014-04-17 18:35:00
1:55 PM,39.2,34.5,83,30.13,10.0,WNW,8.1,-,N/A,,Overcast,290,2014-04-17 18:55:00
2:15 PM,38.3,34.2,85,30.14,10.0,WNW,5.8,-,N/A,,Overcast,290,2014-04-17 19:15:00
2:35 PM,37.8,33.8,86,30.15,10.0,NW,5.8,-,N/A,,Overcast,310,2014-04-17 19:35:00
2:55 PM,39.2,34.3,83,30.15,10.0,WNW,6.9,-,N/A,,Overcast,300,2014-04-17 19:55:00
3:15 PM,36.5,32.0,84,30.16,10.0,WNW,9.2,-,N/A,,Overcast,290,2014-04-17 20:15:00
3:35 PM,37.8,33.1,83,30.16,10.0,West,5.8,-,N/A,,Overcast,280,2014-04-17 20:35:00
3:55 PM,36.5,32.0,84,30.17,10.0,NW,8.1,-,N/A,,Overcast,320,2014-04-17 20:55:00
4:15 PM,36.5,32.0,84,30.18,10.0,WNW,5.8,-,N/A,,Overcast,300,2014-04-17 21:15:00
4:35 PM,36.5,31.6,83,30.19,10.0,WNW,5.8,-,N/A,,Overcast,300,2014-04-17 21:35:00
4:55 PM,36.5,31.6,83,30.21,10.0,NW,5.8,-,N/A,,Overcast,310,2014-04-17 21:55:00
5:15 PM,36.5,32.0,84,30.22,10.0,WNW,3.5,-,N/A,,Overcast,290,2014-04-17 22:15:00
5:35 PM,36.5,32.0,84,30.22,10.0,WNW,8.1,-,N/A,,Overcast,290,2014-04-17 22:35:00
5:55 PM,36.5,32.4,85,30.23,10.0,NW,6.9,-,N/A,,Overcast,310,2014-04-17 22:55:00
6:15 PM,34.0,30.2,86,30.23,10.0,NW,6.9,-,N/A,,Overcast,310,2014-04-17 23:15:00
6:35 PM,34.0,30.0,85,30.23,10.0,WNW,5.8,-,N/A,,Overcast,300,2014-04-17 23:35:00
6:55 PM,34.0,29.8,85,30.23,10.0,NW,4.6,-,N/A,,Overcast,320,2014-04-17 23:55:00
7:15 PM,34.0,29.8,85,30.23,10.0,NW,5.8,-,N/A,,Overcast,320,2014-04-18 00:15:00
7:35 PM,34.0,30.0,85,30.23,10.0,Calm,Calm,-,N/A,,Overcast,0,2014-04-18 00:35:00
7:55 PM,32.9,28.9,85,30.24,10.0,Calm,Calm,-,N/A,,Overcast,0,2014-04-18 00:55:00
8:15 PM,32.9,28.9,85,30.25,10.0,Calm,Calm,-,N/A,,Overcast,0,2014-04-18 01:15:00
8:35 PM,32.9,28.9,85,30.25,10.0,Calm,Calm,-,N/A,,Overcast,0,2014-04-18 01:35:00
8:55 PM,32.9,28.9,85,30.25,10.0,Calm,Calm,-,N/A,,Overcast,0,2014-04-18 01:55:00
9:15 PM,32.9,29.1,86,30.26,10.0,Calm,Calm,-,N/A,,Overcast,0,2014-04-18 02:15:00
9:35 PM,32.9,29.1,86,30.26,10.0,Calm,Calm,-,N/A,,Overcast,0,2014-04-18 02:35:00
9:55 PM,32.9,29.3,87,30.26,10.0,Calm,Calm,-,N/A,,Overcast,0,2014-04-18 02:55:00
10:15 PM,32.9,29.3,87,30.26,10.0,Calm,Calm,-,N/A,,Overcast,0,2014-04-18 03:15:00
10:35 PM,32.9,29.3,87,30.26,10.0,Calm,Calm,-,N/A,,Overcast,0,2014-04-18 03:35:00
10:55 PM,32.9,29.3,87,30.27,10.0,NNW,4.6,-,N/A,,Overcast,340,2014-04-18 03:55:00
11:15 PM,32.9,29.3,87,30.27,10.0,NW,4.6,-,N/A,,Overcast,320,2014-04-18 04:15:00
11:35 PM,32.2,28.4,86,30.26,10.0,NW,3.5,-,N/A,,Overcast,320,2014-04-18 04:35:00
11:55 PM,32.0,28.2,86,30.27,10.0,NW,3.5,-,N/A,,Overcast,310,2014-04-18 04:55:00